Weather reports worldwide

Advertisment
Lentran, United Kingdom (99125): temperature & dewpoint: 12.01.2018 13:00:00 - 18.01.2018 13:00:00 (GMT)Lentran, United Kingdom (99125): precipitation: 12.01.2018 13:00:00 - 18.01.2018 13:00:00 (GMT)
Date & Time tt [°C] td [°C] rr [mm]
18.01.2018 13:00:00 0,9 -1,0 0,0
18.01.2018 12:00:00 0,7 -0,8 0,0
18.01.2018 11:00:00 0,7 -1,0 0,0
18.01.2018 10:00:00 0,5 -1,1 0,0
18.01.2018 09:00:00 0,4 -1,3 0,0
18.01.2018 08:00:00 0,4 -1,5 0,0
18.01.2018 07:00:00 0,2 -0,5 0,0
18.01.2018 06:00:00 -0,3 -1,1 0,0
18.01.2018 05:00:00 -0,5 -0,9 0,0
18.01.2018 04:00:00 -1,5 -1,8 0,0
18.01.2018 03:00:00 -2,2 -2,4 0,0
18.01.2018 02:00:00 -1,9 -2,2 0,0
18.01.2018 01:00:00 -1,2 -2,1 0,0
18.01.2018 00:00:00 -1,7 -2,7 0,0
17.01.2018 23:00:00 -1,2 -2,4 0,0
17.01.2018 22:00:00 -0,5 -1,7 0,0
17.01.2018 21:00:00 0,2 -1,7 0,0
17.01.2018 20:00:00 0,6 -0,9 0,0
17.01.2018 19:00:00 0,5 -1,1 0,0
17.01.2018 18:00:00 0,8 -0,5 0,0
17.01.2018 17:00:00 0,9 0,4 0,0
17.01.2018 16:00:00 0,5 0,3 0,0
17.01.2018 15:00:00 0,8 0,2 0,2
17.01.2018 14:00:00 1,1 0,2 0,0
17.01.2018 13:00:00 1,0 0,0 0,0
17.01.2018 12:00:00 0,7 0,2 0,0
17.01.2018 11:00:00 0,7 0,1 0,0
17.01.2018 10:00:00 1,0 -0,7 0,0
17.01.2018 09:00:00 0,6 -0,2 0,0
17.01.2018 08:00:00 0,4 -1,0 0,0
17.01.2018 07:00:00 0,1 -1,2 0,0
17.01.2018 06:00:00 -0,2 -1,5 0,0
17.01.2018 05:00:00 -0,1 -1,2 0,0
17.01.2018 04:00:00 -0,2 -0,7 0,0
17.01.2018 03:00:00 -0,3 -0,6 0,0
17.01.2018 02:00:00 -0,9 -2,3 0,0
17.01.2018 01:00:00 -1,5 -2,8 0,0
17.01.2018 00:00:00 -2,0 -3,4 0,0
16.01.2018 23:00:00 -1,6 -2,7 0,0
16.01.2018 22:00:00 -1,4 -2,3 0,0
16.01.2018 21:00:00 -2,1 -3,3 0,0
16.01.2018 20:00:00 -1,4 -2,4 0,0
16.01.2018 19:00:00 -1,5 -2,2 0,0
16.01.2018 18:00:00 -1,9 -3,1 0,0
16.01.2018 17:00:00 -1,0 -2,3 0,0
16.01.2018 16:00:00 -1,5 -2,6 0,0
16.01.2018 15:00:00 -0,6 -1,5 0,0
16.01.2018 14:00:00 -1,0 -2,2 0,0
16.01.2018 13:00:00 -0,6 -1,1 0,0
16.01.2018 12:00:00 -0,3 -0,7 0,0
16.01.2018 11:00:00 -0,4 -0,8 0,0
16.01.2018 10:00:00 -0,6 -1,0 0,0
16.01.2018 09:00:00 -0,1 -1,2 0,0
16.01.2018 08:00:00 -0,3 -1,2 0,0
16.01.2018 07:00:00 -0,2 -0,8 0,0
16.01.2018 06:00:00 -0,5 -1,1 0,0
16.01.2018 05:00:00 -0,4 -1,7 0,0
16.01.2018 04:00:00 -0,3 -0,9 0,0
16.01.2018 03:00:00 -0,2 -1,1 0,0
16.01.2018 02:00:00 -0,5 -1,9 0,0
16.01.2018 01:00:00 -0,2 -1,6 0,0
16.01.2018 00:00:00 -0,1 -0,9 0,0
15.01.2018 23:00:00 0,1 -1,1 0,0
15.01.2018 22:00:00 0,5 -1,0 0,0
15.01.2018 21:00:00 0,7 -0,3 0,0
15.01.2018 20:00:00 0,8 -0,4 0,0
15.01.2018 19:00:00 0,7 -0,1 0,0
15.01.2018 18:00:00 1,1 0,0 0,0
15.01.2018 17:00:00 1,4 0,0 0,0
15.01.2018 16:00:00 1,6 0,5 0,2
15.01.2018 15:00:00 2,5 0,3 0,0
15.01.2018 14:00:00 2,7 0,9 0,0
15.01.2018 13:00:00 2,6 0,7 0,0
15.01.2018 12:00:00 2,9 1,6 0,0
15.01.2018 11:00:00 2,7 1,4 0,0
15.01.2018 10:00:00 2,6 2,0 0,4
15.01.2018 09:00:00 3,1 2,1 0,6
15.01.2018 08:00:00 3,9 1,7 0,0
15.01.2018 07:00:00 3,7 2,3 0,2
15.01.2018 06:00:00 3,8 2,4 0,0
15.01.2018 05:00:00 4,6 2,8 0,0
15.01.2018 04:00:00 4,7 2,9 0,0
15.01.2018 03:00:00 5,2 3,5 0,0
15.01.2018 02:00:00 6,0 4,7 0,0
15.01.2018 01:00:00 6,5 5,5 0,4
15.01.2018 00:00:00 6,7 5,8 0,2
14.01.2018 23:00:00 6,3 5,3 0,2
14.01.2018 22:00:00 5,7 4,4 0,0
14.01.2018 21:00:00 4,6 3,5 0,2
14.01.2018 20:00:00 4,3 3,1 0,2
14.01.2018 19:00:00 4,2 3,1 0,6
14.01.2018 18:00:00 4,1 2,9 0,6
14.01.2018 17:00:00 4,4 3,2 1,4
14.01.2018 16:00:00 6,2 2,8 0,2
14.01.2018 15:00:00 6,7 2,9 0,0
14.01.2018 14:00:00 6,9 1,6 0,0
14.01.2018 13:00:00 6,8 1,6 0,0
14.01.2018 12:00:00 6,7 1,6 0,0
14.01.2018 11:00:00 6,6 1,6 0,0
14.01.2018 10:00:00 6,2 1,9 0,0
14.01.2018 09:00:00 5,6 1,6 0,0
14.01.2018 08:00:00 5,8 2,1 0,0
14.01.2018 07:00:00 5,7 2,8 0,0
14.01.2018 06:00:00 5,1 2,4 0,0
14.01.2018 05:00:00 5,4 2,5 0,0
14.01.2018 04:00:00 5,2 2,1 0,0
14.01.2018 03:00:00 5,4 2,2 0,0
14.01.2018 02:00:00 4,8 1,8 -
14.01.2018 01:00:00 5,2 2,0 0,0
14.01.2018 00:00:00 5,4 1,8 0,0
13.01.2018 23:00:00 5,2 1,5 0,0
13.01.2018 22:00:00 5,5 1,5 0,0
13.01.2018 21:00:00 5,3 1,5 0,0
13.01.2018 20:00:00 5,0 1,5 0,0
13.01.2018 19:00:00 5,0 1,4 0,0
13.01.2018 18:00:00 5,1 1,3 0,0
13.01.2018 17:00:00 5,2 1,0 0,0
13.01.2018 16:00:00 5,3 1,0 0,0
13.01.2018 15:00:00 5,6 0,7 0,0
13.01.2018 14:00:00 5,2 1,0 0,0
13.01.2018 13:00:00 5,5 0,7 0,0
13.01.2018 12:00:00 5,4 0,9 0,0
13.01.2018 11:00:00 5,0 0,9 0,0
13.01.2018 10:00:00 4,8 1,0 0,0
13.01.2018 09:00:00 4,9 1,1 0,0
13.01.2018 08:00:00 4,3 0,7 0,0
13.01.2018 07:00:00 4,1 0,5 0,0
13.01.2018 06:00:00 4,5 0,5 0,0
13.01.2018 05:00:00 4,7 0,5 0,0
13.01.2018 04:00:00 4,3 0,3 0,0
13.01.2018 03:00:00 4,3 0,3 0,0
13.01.2018 02:00:00 4,1 0,1 0,0
13.01.2018 01:00:00 4,1 -0,4 0,0
13.01.2018 00:00:00 4,1 0,1 0,0
12.01.2018 23:00:00 2,9 0,4 0,0
12.01.2018 22:00:00 2,1 -0,1 0,0
12.01.2018 21:00:00 3,4 0,0 0,0
12.01.2018 20:00:00 4,6 0,0 0,0
12.01.2018 19:00:00 4,8 0,3 0,0
12.01.2018 18:00:00 4,7 0,3 0,0
12.01.2018 17:00:00 5,1 0,5 0,0
12.01.2018 16:00:00 5,1 0,6 0,0
12.01.2018 15:00:00 5,4 1,0 0,0
12.01.2018 14:00:00 5,8 1,3 0,0
12.01.2018 13:00:00 - - 0,0

tt = temperature
td = dewpoint
rr = precipitation

Next stations